TimePST,TemperatureF,Dew PointF,Humidity,Sea Level PressureIn,VisibilityMPH,Wind Direction,Wind SpeedMPH,Gust SpeedMPH,PrecipitationIn,Events,Conditions,WindDirDegrees,DateUTC
12:55 AM,27.0,25.0,92,30.25,8.0,Calm,Calm,-,N/A,,Clear,0,2013-02-04 08:55:00
1:29 AM,24.8,24.8,100,30.21,2.0,Calm,Calm,-,N/A,,Clear,0,2013-02-04 09:29:00
2:55 AM,25.0,24.1,96,30.22,6.0,Calm,Calm,-,N/A,,Clear,0,2013-02-04 10:55:00
3:33 AM,24.8,23.0,93,30.19,2.5,Calm,Calm,-,N/A,,Clear,0,2013-02-04 11:33:00
3:41 AM,24.8,23.0,93,30.19,4.0,Calm,Calm,-,N/A,,Clear,0,2013-02-04 11:41:00
3:55 AM,24.1,23.0,96,30.21,5.0,Calm,Calm,-,N/A,,Clear,0,2013-02-04 11:55:00
4:55 AM,25.0,23.0,92,30.20,4.0,Calm,Calm,-,N/A,,Clear,0,2013-02-04 12:55:00
5:55 AM,24.1,23.0,96,30.23,7.0,Calm,Calm,-,N/A,,Clear,0,2013-02-04 13:55:00
6:55 AM,23.0,21.9,96,30.25,10.0,NW,3.5,-,N/A,,Clear,320,2013-02-04 14:55:00
7:55 AM,26.1,23.0,88,30.26,7.0,Calm,Calm,-,N/A,,Clear,0,2013-02-04 15:55:00
8:55 AM,30.0,27.0,88,30.25,10.0,Calm,Calm,-,N/A,,Clear,0,2013-02-04 16:55:00
9:55 AM,35.1,28.9,78,30.24,10.0,Calm,Calm,-,N/A,,Clear,0,2013-02-04 17:55:00
10:55 AM,39.0,28.0,65,30.22,10.0,Calm,Calm,-,N/A,,Clear,0,2013-02-04 18:55:00
11:55 AM,43.0,28.9,58,30.17,10.0,Calm,Calm,-,N/A,,Clear,0,2013-02-04 19:55:00
12:55 PM,46.9,28.0,48,30.12,10.0,Calm,Calm,-,N/A,,Clear,0,2013-02-04 20:55:00
1:55 PM,48.0,28.9,48,30.11,10.0,Calm,Calm,-,N/A,,Clear,0,2013-02-04 21:55:00
2:55 PM,48.9,28.9,46,30.10,10.0,Calm,Calm,-,N/A,,Clear,0,2013-02-04 22:55:00
3:55 PM,52.0,28.9,41,30.08,10.0,Calm,Calm,-,N/A,,Clear,0,2013-02-04 23:55:00
4:55 PM,48.0,32.0,54,30.08,10.0,Calm,Calm,-,N/A,,Clear,0,2013-02-05 00:55:00
5:55 PM,39.9,32.0,73,30.11,10.0,Calm,Calm,-,N/A,,Clear,0,2013-02-05 01:55:00
6:55 PM,36.0,30.0,79,30.13,7.0,Calm,Calm,-,N/A,,Clear,0,2013-02-05 02:55:00
7:55 PM,36.0,30.0,79,30.12,3.0,Calm,Calm,-,N/A,,Haze,0,2013-02-05 03:55:00
8:55 PM,30.0,28.0,92,30.12,10.0,Calm,Calm,-,N/A,,Clear,0,2013-02-05 04:55:00
9:55 PM,30.9,26.1,82,30.10,10.0,WNW,3.5,-,N/A,,Clear,290,2013-02-05 05:55:00
10:55 PM,28.0,26.1,92,30.09,7.0,SSE,3.5,-,N/A,,Clear,150,2013-02-05 06:55:00
11:55 PM,28.9,25.0,85,30.07,7.0,Calm,Calm,-,N/A,,Clear,0,2013-02-05 07:55:00